Location: Cowley
(49.5667°N, 114.0667°W)
Time: 10:52:15
(UTC+00:00)

Envisat - Pass Details

Date: 06 December 2021
Orbit: 764 x 766 km, 98.2° (Epoch: 25 January)

Event Time Altitude Azimuth Distance (km) Brightness Sun altitude
Rises 12:36:46 0° 15° (NNE) 3,246 6.4 -25.0°
Reaches altitude 10° 12:39:06 10° 18° (NNE) 2,315 5.6 -24.7°
Maximum altitude 12:44:12 73° 102° (ESE) 806 3.2 -23.8°
Drops below altitude 10° 12:49:16 10° 188° (S) 2,297 5.5 -23.0°
Sets 12:51:34 0° 190° (S) 3,218 6.2 -22.7°
